EHI
0 0 0 0 0 0 0 0 0 0 0 0 0 0 0 0 0 0 0 0 0 0 0 0 0 0 0 0 0 0 0 0 0 0 0 0 0 0 0 0 0 0 0 0
0 0 0 0 0 0 0 0 0 0 0 0 0 0 0 0 0 0 0 0 0 0 0 0 0 0 0 0 0 0 0 0 0 0 0 0 0 0 0 0 0 0 0 0
0 0 0 0 0 0 0 0 0 0 0 0 0 0 0 0 0 0 0 0 0 0 0 0 0 0 0 0 0 0 0 0 0 0 0 0 0 0 0 0 0 0 0 0
0 0 0 0 0 0 0 0 0 0 0 0 0 0 0 0 0 0 0 0 0 0 0 0 0 0 0 0 0 0 0 0 0 0 0 0 0 0 0 0 0 0 0 0
0 0 0 0 0 0 0 0 0 0 0 0 0 0 0 0 0 0 0 0 0 0 0 0 0 0 0 0 0 0 0 0 0 0 0 0 0 0 0 0 0 0 0 0
0 0 0 0 0 0 0 0 0 0 0 0 0 0 0 0 0 0 0 0 0 0 0 0 0 0 0 0 0 0 0 0 0 0 0 0 0 0 0 0 0 0 0 0
0 0 0 0 0 0 0 0 0 0 0 0 0 0 0 0 0 0 0 0 0 0 0 0 0 0 0 0 0 0 0 0 0 0 0 0 0 0 0 0 0 0 0 0
0 0 0 0 0 0 0 0 0 0 0 0 0 0 0 0 0 0 0 0 0 0 0 0 0 0 0 0 0 0 0 0 0 0 0 0 0 0 0 0 0 0 0 0
0 0 0 0 0 0 0 0 0 0 0 0 0 0 0 0 0 0 0 0 0 0 0 0 0 0 0 0 0 0 0 0 0 0 0 0 0 0 0 0 0 0 0 0
0 0 0 0 0 0 0 0 0 0 0 0 0 0 0 0 0 0 0 0 0 0 0 0 0 0 0 0 0 0 0 0 0 0 0 0 0 0 0 0 0 0 0 0
0 0 0 0 0 0 0 0 0 0 0 0 0 0 0 0 0 0 0 0 0 0 0 0 0 0 0 0 0 0 0 0 0 0 0 0 0 0 0 0 0 0 0 0
0 0 0 0 0 0 0 0 0 0 0 0 0 0 0 0 0 0 0 0 0 0 0 0 0 0 0 0 0 0 0 0 0 0 0 0 0 0 0 0 0 0 0 0
0 0 0 0 0 0 0 0 0 0 0 0 0 0 0 0 0 0 0 0 0 0 0 0 0 0 0 0 0 0 0 0 0 0 0 0 0 0 0 0 0 0 0 0
0 0 0 0 0 0 0 0 0 0 0 0 0 0 0 0 0 0 0 0 0 0 0 0 0 0 0 0 0 0 0 0 0 0 0 0 0 0 0 0 0 0 0 0
0 0 0 0 0 0 0 0 0 0 0 0 0 0 0 0 0 0 0 0 0 0 0 0 0 0 0 0 0 0 0 0 0 0 0 0 0 0 0 0 0 0 0 0
0 0 0 0 0 0 0 0 0 0 0 0 0 0 0 0 0 0 0 0 0 0 0 0 0 0 0 0 0 0 0 0 0 0 0 0 0 0 0 0 0 0 0 0
0 0 0 0 0 0 0 0 0 0 0 0 0 0 0 0 0 0 0 0 0 0 0 0 0 0 0 0 0 0 0 0 0 0 0 0 0 0 0 0 0 0 0 0
0 0 0 0 0 0 0 0 0 0 0 0 0 0 0 0 0 0 0 0 0 0 0 0 0 0 0 0 0 0 0 0 0 0 0 0 0 0 0 0 0 0 0 0
0 0 0 0 0 0 0 0 0 0 0 0 0 0 0 0 0 0 0 0 0 0 0 0 0 0 0 0 0 0 0 0 0 0 0 0 0 0 0 0 0 0 0 0
0 0 0 0 0 0 0 0 0 0 0 0 0 0 0 0 0 0 0 0 0 0 0 0 0 0 0 0 0 0 0 0 0 0 0 0 0 0 0 0 0 0 0 0
0 0 0 0 0 0 0 0 0 0 0 0 0 0 0 0 0 0 0 0 0 0 0 0 0 0 0 0 0 0 0 0 0 0 0 0 0 0 0 0 0 0 0 0
0 0 0 0 0 0 0 0 0 0 0 0 0 0 0 0 0 0 0 0 0 0 0 0 0 0 0 0 0 0 0 0 0 0 0 0 0 0 0 0 0 0 0 0
0 0 0 0 0 0 0 0 0 0 0 0 0 0 0 0 0 0 0 0 0 0 0 0 0 0 0 0 0 0 0 0 0 0 0 0 0 0 0 0 0 0 0 0
0 0 0 0 0 0 0 0 0 0 0 0 0 0 0 0 0 0 0 0 0 0 0 0 0 0 0 0 0 0 0 0 0 0 0 0 0 0 0 0 0 0 0 0
0 0 0 0 0 0 0 0 0 0 0 0 0 0 0 0 0 0 0 0 0 0 0 0 0 0 0 0 0 0 0 0 0 0 0 0 0 0 0 0 0 0 0 0
0 0 0 0 0 0 0 0 0 0 0 0 0 0 0 0 0 0 0 0 0 0 0 0 0 0 0 0 0 0 0 0 0 0 0 0 0 0 0 0 0 0 0 0
Wind_Speed
1 2 4 7 8 6 4 5 8 9 5 4 7 11 12 7 3 5 6 7 7 7 7 4 1 5 7 8 10 13 14 12 10 8 8 9 10 8 7 8 10 12 12 12
3 5 10 6 5 5 4 5 7 7 4 3 6 8 7 2 2 2 3 6 7 8 10 8 3 3 6 8 10 11 13 12 12 12 9 6 6 5 6 6 9 11 12 12
7 8 3 4 4 3 4 5 5 5 8 5 5 7 5 3 3 4 4 4 5 6 7 7 5 1 2 6 9 10 12 12 12 10 5 2 2 1 3 6 7 9 12 12
7 7 4 4 4 3 5 4 3 3 4 5 3 3 6 2 2 2 3 4 4 5 5 5 4 2 1 4 5 6 7 9 9 8 7 9 9 11 10 8 7 8 11 13
5 2 3 4 4 4 5 2 2 2 1 3 2 2 8 3 3 3 2 1 2 3 4 4 4 3 3 2 1 3 4 6 7 8 10 10 12 12 7 5 7 9 9 12
7 4 3 4 1 2 1 4 4 4 4 3 3 3 7 5 7 6 4 2 1 2 4 4 5 5 4 4 3 0 2 4 5 8 9 10 13 12 9 9 9 8 8 9
4 2 2 2 1 1 4 5 5 5 4 5 3 3 9 7 5 7 7 4 2 1 2 3 5 5 5 5 4 2 1 3 4 6 8 10 12 12 13 12 10 10 8 9
2 5 4 3 4 4 2 5 4 2 4 7 6 5 8 5 2 4 4 3 2 1 1 1 2 2 3 4 3 2 2 3 3 5 7 8 9 8 9 11 10 10 10 10
5 4 0 1 1 4 3 3 5 5 1 4 7 8 7 4 5 3 2 2 2 2 2 2 2 2 2 3 3 3 3 4 4 5 6 6 7 8 10 10 9 9 10 9
6 3 1 1 2 1 2 5 4 3 1 4 7 6 4 3 2 2 3 4 5 3 2 2 2 3 3 3 3 3 3 4 4 4 5 5 6 7 8 8 9 10 11 10
3 4 2 1 5 6 4 3 4 4 4 4 4 9 6 4 5 5 5 5 5 4 3 3 3 3 3 3 4 4 4 4 4 5 5 5 6 6 6 7 9 9 9 9
4 5 3 6 4 3 6 7 7 4 5 5 3 10 5 3 3 4 3 3 3 3 3 3 3 3 4 4 4 4 4 4 5 5 4 5 6 6 6 8 9 8 9 9
5 5 1 5 2 1 1 3 5 4 3 4 5 11 3 0 1 1 1 2 2 3 3 3 3 4 4 5 5 5 5 5 5 5 5 6 6 7 8 9 9 8 9 9
6 5 6 7 6 3 3 4 4 5 4 6 11 12 9 8 6 3 2 2 2 3 2 2 3 4 5 6 6 6 6 6 5 5 6 7 8 8 9 9 9 9 9 9
5 4 5 6 5 4 7 10 8 9 10 11 10 11 13 8 3 1 1 2 3 3 3 4 4 5 6 6 6 6 6 6 5 6 7 8 8 8 9 9 9 9 9 10
4 4 2 4 5 6 10 14 12 11 9 10 11 13 5 1 2 1 2 2 3 4 5 6 6 7 7 7 7 6 7 7 6 7 8 9 9 9 9 10 10 10 10 10
5 6 3 4 3 6 11 10 7 6 6 7 7 5 1 2 1 1 1 1 3 5 6 7 7 7 7 7 6 6 7 7 7 8 9 9 10 10 10 11 10 10 11 10
8 7 4 2 1 9 10 3 3 4 2 0 2 2 2 1 2 2 1 1 4 6 7 7 7 7 6 6 6 6 7 7 8 9 9 10 10 11 11 11 11 11 10 10
6 8 5 4 4 10 10 5 2 3 1 3 3 2 2 3 3 4 2 2 5 6 7 7 6 6 6 6 6 7 8 8 9 10 10 10 10 11 12 12 12 11 10 10
3 5 6 5 5 9 9 4 1 2 2 1 3 2 3 3 4 5 5 6 8 8 7 7 6 5 6 7 6 7 9 9 10 11 11 11 11 11 13 13 12 11 10 11
4 4 5 6 6 11 8 4 1 3 4 0 1 1 2 2 6 7 7 7 7 8 8 6 5 5 7 7 7 9 10 11 12 12 12 11 11 11 13 12 11 11 11 11
9 7 7 6 6 11 4 2 4 3 1 1 1 2 4 6 8 7 7 7 8 8 7 6 6 7 7 7 8 11 12 12 12 11 12 12 12 11 11 12 12 11 11 12
7 9 8 10 9 2 3 5 4 3 2 2 3 5 5 6 6 7 7 7 7 7 7 6 7 9 9 8 8 12 14 13 13 12 12 12 12 11 10 11 12 11 10 10
3 3 4 4 4 2 4 4 2 2 3 4 4 4 4 5 6 7 7 7 7 7 7 7 8 10 12 10 9 11 13 13 12 14 13 12 12 12 11 9 9 9 10 10
4 3 3 3 2 2 2 2 2 2 2 2 3 3 3 4 6 6 6 7 7 7 7 7 8 11 14 13 12 11 11 12 13 13 12 12 11 11 11 10 9 11 10 12
4 5 5 6 4 3 3 2 1 2 2 3 3 5 5 4 6 6 7 7 7 8 9 9 10 12 14 14 14 12 11 11 13 12 11 10 10 10 10 11 12 15 17 22
Wind_Direction
39 81 227 222 207 215 236 251 274 270 283 306 274 282 296 314 27 24 11 8 5 348 328 336 187 173 178 186 191 195 198 197 184 183 192 199 210 207 208 210 207 205 205 202
15 257 241 228 219 218 240 276 284 294 327 309 297 302 311 358 68 49 26 17 10 6 8 12 42 137 180 194 198 199 201 197 196 202 200 199 202 205 207 211 213 209 209 207
220 245 253 199 218 253 270 246 260 286 327 351 358 344 347 356 28 22 13 12 15 20 16 10 18 75 189 206 206 206 205 202 202 198 180 173 169 246 213 216 219 214 212 212
238 251 216 216 236 208 272 253 244 303 3 315 22 312 289 287 349 359 355 7 16 16 20 17 13 2 271 236 217 215 208 205 202 189 187 193 206 222 223 219 219 214 212 216
263 236 201 227 237 193 239 306 282 259 147 318 314 202 281 256 224 239 258 313 3 18 28 20 3 342 335 326 249 219 208 209 200 197 202 207 223 234 235 223 225 224 220 220
247 252 220 215 198 190 2 21 37 48 67 322 253 176 278 226 211 204 219 233 308 20 27 18 8 8 3 5 8 352 210 224 209 205 211 216 228 235 239 235 233 233 230 226
304 264 232 142 110 59 67 57 14 354 4 269 289 233 253 250 220 182 184 194 214 351 29 16 17 12 6 4 356 349 270 254 231 217 221 225 232 235 239 241 240 240 240 236
286 288 230 196 185 186 186 136 150 236 263 293 318 257 263 300 115 130 146 164 184 210 320 339 347 354 348 354 355 340 300 276 258 235 236 236 237 238 245 246 243 243 245 243
197 261 321 176 205 164 158 167 169 141 285 282 288 293 312 39 69 93 123 157 202 229 246 265 297 316 328 340 339 322 301 289 279 258 252 252 245 242 249 253 250 252 252 251
165 233 270 43 72 34 147 145 102 129 215 277 293 288 252 204 189 168 191 211 223 228 244 269 290 302 316 321 324 332 310 288 285 277 263 258 256 251 253 259 260 258 258 256
141 178 276 301 206 203 159 175 154 146 165 180 270 274 237 213 187 189 217 225 224 224 238 267 287 306 328 339 341 335 324 309 299 289 279 277 276 272 268 264 264 264 265 262
133 129 239 259 249 204 181 185 153 165 227 194 209 268 268 188 184 187 213 237 241 245 260 281 308 339 345 338 329 322 311 302 291 288 287 283 282 284 280 273 271 269 268 267
134 119 12 334 338 49 194 187 174 153 154 189 204 260 289 215 318 323 273 276 280 290 308 326 337 338 327 317 310 304 297 290 289 291 292 293 291 287 282 279 278 276 273 272
115 145 180 209 214 198 256 250 214 177 201 230 227 252 280 292 296 305 317 304 305 312 324 338 327 312 303 297 294 295 294 291 294 297 296 294 291 288 285 284 283 280 278 276
119 187 225 244 252 246 247 254 240 220 214 229 248 254 270 277 258 230 312 343 355 346 335 321 304 293 292 294 295 296 295 298 301 303 300 294 292 290 288 287 284 282 279 276
124 174 209 271 270 274 272 263 252 244 231 235 258 271 284 103 110 76 23 11 351 320 307 301 296 294 292 291 293 297 297 298 304 301 295 294 295 294 291 288 286 284 281 278
160 153 157 264 307 340 277 254 230 226 224 212 232 249 60 59 40 349 338 1 318 299 290 290 290 285 285 287 290 295 294 299 300 295 294 296 295 294 290 288 288 285 283 280
154 150 157 210 32 248 245 237 221 233 276 341 116 71 56 353 292 284 219 280 296 291 289 289 286 286 288 291 297 296 299 300 298 296 294 293 292 291 290 289 287 285 283 281
164 149 148 157 222 276 290 280 209 169 117 56 88 49 352 311 330 307 266 299 291 289 288 284 283 285 292 299 301 304 305 303 301 297 294 293 291 291 293 291 290 288 288 286
96 137 143 156 192 243 251 262 285 100 199 40 86 42 348 13 353 285 295 308 302 299 297 295 297 301 305 306 309 309 304 303 299 296 293 292 290 290 291 291 290 289 287 287
124 143 171 174 212 258 256 269 121 189 239 147 60 6 329 271 241 263 289 291 288 290 291 294 300 300 297 300 307 303 301 297 295 295 294 292 289 288 290 290 288 290 290 289
172 167 181 160 196 250 266 106 128 181 164 179 255 265 266 262 269 280 287 288 294 296 298 302 302 299 297 298 301 300 300 297 297 295 294 293 291 290 294 291 291 290 290 291
196 187 180 188 205 204 84 113 128 147 190 239 253 263 266 273 279 288 289 293 296 296 296 296 295 298 299 295 291 294 298 300 299 298 296 295 294 291 290 290 293 294 292 291
251 146 156 220 253 143 123 129 143 187 213 236 248 261 267 278 286 293 293 295 297 296 296 296 301 304 306 304 294 287 294 298 299 299 299 297 298 297 293 288 288 290 291 290
229 149 161 237 257 122 162 172 205 234 250 272 293 285 291 294 297 295 298 298 298 299 297 297 297 299 301 303 301 297 296 299 300 299 297 298 295 296 297 292 289 289 280 282
206 184 186 224 212 187 235 247 278 313 313 312 320 319 317 309 299 301 299 296 298 300 300 300 297 296 300 303 303 302 301 300 300 302 301 299 298 298 296 298 297 291 289 294